Miscellaneous Local Product
Issued by NWS North Platte, NE

Home | Current Version | Previous Version | Graphics & Text | Print | Product List | Glossary On
Versions: 1 2 3 4 5 6 7 8 9 10 11 12 13 14 15 16 17 18 19 20 21 22 23 24 25 26 27 28 29 30 31 32 33 34 35 36 37 38 39 40 41 42 43 44 45 46 47 48 49 50
745
AXUS43 KLBF 282110
MISLBF


WESTERN AND NORTH CENTRAL NEBRASKA HOURLY WEATHER ROUNDUP
NATIONAL WEATHER SERVICE NORTH PLATTE NE
400 PM CDT WED SEP 28 2016

NOTE: "FAIR" INDICATES FEW OR NO CLOUDS BELOW 12,000 FEET WITH NO
SIGNIFICANT WEATHER AND/OR OBSTRUCTIONS TO VISIBILITY.

NOTE: STATIONS NOT REPORTING VARIABLES SUCH AS SKY/WEATHER OR
PRESSURE ARE PROVIDED BY RAWS AND APRS NETWORKS AND ARE NOT UNDER
NATIONAL WEATHER SERVICE QUALITY CONTROL.

...OBSERVATIONS IN AND NEAR THE EASTERN PANHANDLE OF NEBRASKA...

CITY           SKY/WX    TMP DP  RH WIND       PRES   REMARKS
PINE RIDGE     SUNNY     82  43  25 NE7       30.24S
CHADRON        SUNNY     82  40  22 VRB3      30.23S
ALLIANCE       SUNNY     81  39  22 CALM      30.25F
SIDNEY         SUNNY     80  36  20 E6G17     30.29F
$$

...OBSERVATIONS IN NORTHERN NEBRASKA AND FAR SOUTHERN SOUTH DAKOTA...

CITY           SKY/WX    TMP DP  RH WIND       PRES   REMARKS
WINNER         FAIR      70  40  33 MISG      30.26S
VALENTINE      SUNNY     72  32  23 NE12      30.26S
THEDFORD       SUNNY     76  43  30 NE8       30.26R
AINSWORTH      SUNNY     71  30  22 N8        30.26S
O`NEILL        SUNNY     66  41  40 N5        30.26S
ORD            SUNNY     70  45  40 NE10G18   30.22S
BROKEN BOW     SUNNY     74  24  15 N14       30.23S
$$

...OBSERVATIONS IN SOUTHWEST NEBRASKA AND FAR NORTHEAST COLORADO...

CITY           SKY/WX    TMP DP  RH WIND       PRES   REMARKS
WRAY           FAIR      84  36  17 NE13G22   30.24
HOLYOKE        FAIR      84  34  16 E10G16    30.25S
IMPERIAL       SUNNY     82  33  17 N13       30.24S
OGALLALA       SUNNY    N/A N/A N/A CALM      30.24S
NORTH PLATTE   SUNNY     78  40  25 NE9       30.23S
MCCOOK         SUNNY     81  43  26 NE9       30.21R
LEXINGTON      SUNNY     75  35  23 NE14      30.23R
GOTHENBURG       N/A     76  38  25 N8          N/A
CALLAWAY         N/A     75  42  31 N12         N/A
$$

...OBSERVATIONS IN CENTRAL LINCOLN COUNTY AREA...

CITY           SKY/WX    TMP DP  RH WIND       PRES   REMARKS
N.P. AIRPORT   SUNNY     78  40  25 NE9       30.23S
$$

...SOME OBSERVATIONS FROM AROUND THE REGION...

CITY           SKY/WX    TMP DP  RH WIND       PRES   REMARKS
DENVER         MOSUNNY   81  28  14 E9G17     30.30F
LARAMIE        SUNNY     72  30  21 SE15      30.37F
CHEYENNE       SUNNY     76  34  21 SE5       30.35F
SCOTTSBLUFF    SUNNY     81  38  21 S3        30.27S
RAPID CITY     SUNNY     79  48  33 NE9       30.25S
BISMARCK       SUNNY     69  38  32 E10       30.29S
PIERRE         SUNNY     71  36  27 NE10      30.25S
SIOUX FALLS    MOSUNNY   66  46  48 NE13      30.26R
OMAHA          MOSUNNY   66  46  48 N14       30.21R
GRAND ISLAND   SUNNY     69  42  37 N9        30.22S
KANSAS CITY    MOSUNNY   66  47  50 N15G21    30.15R
WICHITA        MOSUNNY   76  37  24 N16       30.13R
OKLAHOMA CITY  MOSUNNY   86  52  30 N16       30.06S
DALLAS         MOSUNNY   89  47  23 SW3       30.01F
AMARILLO       SUNNY     86  35  16 E10       30.19S
DODGE CITY     SUNNY     83  44  25 NE12G18   30.19R
HAYS           SUNNY     75  41  29 N15       30.20R
GOODLAND       SUNNY     83  40  21 NE12      30.23S
$$




USA.gov is the U.S. government's official web portal to all federal, state and local government web resources and services.